Tracking 29040 objects as of 16-Jun-2024
HD Live streaming from Space Station
objects crossing your sky now

SL-14 DEB

Track SL-14 DEB now!
10-day predictions


NORAD ID: 26014
Int'l Code: 1991-068Z
Perigee: 1,459.9 km
Apogee: 1,529.7 km
Inclination: 82.7 °
Period: 115.7 minutes
Semi major axis: 7865 km
RCS: 0.0989 m2 (small)
Launch date: September 28, 1991
Source: Commonwealth of Independent States (former USSR) (CIS)
Launch site: PLESETSK MISSILE AND SPACE COMPLEX (PKMTR)

Note: This is SATELLITE DEBRIS
Your satellite tracking list
Your tracking list is empty




NASA's NSSDC Master Catalog

Two Line Element Set (TLE):
1 26014U 91068Z   24168.41966499  .00000006  00000-0 -27593-4 0  9993
2 26014  82.7431  53.7304 0044394 328.8567 155.4957 12.44487339121000
Source of the keplerian elements: AFSPC